EHI
0 0 0 0 0 0 0 0 0 0 0 0 0 0 0 0 0 0 0 0 0 0 0 0 0 0 0 0 0 0 0 0 0 0 0 0 0 0
0 0 0 0 0 0 0 0 0 0 0 0 0 0 0 0 0 0 0 0 0 0 0 0 0 0 0 0 0 0 0 0 0 0 0 0 0 0
0 0 0 0 0 0 0 0 0 0 0 0 0 0 0 0 0 0 0 0 0 0 0 0 0 0 0 0 0 0 0 0 0 0 0 0 0 0
0 0 0 0 0 0 0 0 0 0 0 0 0 0 0 0 0 0 0 0 0 0 0 0 0 0 0 0 0 0 0 0 0 0 0 0 0 0
0 0 0 0 0 0 0 0 0 0 0 0 0 0 0 0 0 0 0 0 0 0 0 0 0 0 0 0 0 0 0 0 0 0 0 0 0 0
0 0 0 0 0 0 0 0 0 0 0 0 0 0 0 0 0 0 0 0 0 0 0 0 0 0 0 0 0 0 0 0 0 0 0 0 0 0
0 0 0 0 0 0 0 0 0 0 0 0 0 0 0 0 0 0 0 0 0 0 0 0 0 0 0 0 0 0 0 0 0 0 0 0 0 0
0 0 0 0 0 0 0 0 0 0 0 0 0 0 0 0 0 0 0 0 0 0 0 0 0 0 0 0 0 0 0 0 0 0 0 0 0 0
0 0 0 0 0 0 0 0 0 0 0 0 0 0 0 0 0 0 0 0 0 0 0 0 0 0 0 0 0 0 0 0 0 0 0 0 0 0
0 0 0 0 0 0 0 0 0 0 0 0 0 0 0 0 0 0 0 0 0 0 0 0 0 0 0 0 0 0 0 0 0 0 0 0 0 0
0 0 0 0 0 0 0 0 0 0 0 0 0 0 0 0 0 0 0 0 0 0 0 0 0 0 0 0 0 0 0 0 0 0 0 0 0 0
0 0 0 0 0 0 0 0 0 0 0 0 0 0 0 0 0 0 0 0 0 0 0 0 0 0 0 0 0 0 0 0 0 0 0 0 0 0
0 0 0 0 0 0 0 0 0 0 0 0 0 0 0 0 0 0 0 0 0 0 0 0 0 0 0 0 0 0 0 0 0 0 0 0 0 0
0 0 0 0 0 0 0 0 0 0 0 0 0 0 0 0 0 0 0 0 0 0 0 0 0 0 0 0 0 0 0 0 0 0 0 0 0 0
0 0 0 0 0 0 0 0 0 0 0 0 0 0 0 0 0 0 0 0 0 0 0 0 0 0 0 0 0 0 0 0 0 0 0 0 0 0
0 0 0 0 0 0 0 0 0 0 0 0 0 0 0 0 0 0 0 0 0 0 0 0 0 0 0 0 0 0 0 0 0 0 0 0 0 0
0 0 0 0 0 0 0 0 0 0 0 0 0 0 0 0 0 0 0 0 0 0 0 0 0 0 0 0 0 0 0 0 0 0 0 0 0 0
0 0 0 0 0 0 0 0 0 0 0 0 0 0 0 0 0 0 0 0 0 0 0 0 0 0 0 0 0 0 0 0 0 0 0 0 0 0
0 0 0 0 0 0 0 0 0 0 0 0 0 0 0 0 0 0 0 0 0 0 0 0 0 0 0 0 0 0 0 0 0 0 0 0 0 0
0 0 0 0 0 0 0 0 0 0 0 0 0 0 0 0 0 0 0 0 0 0 0 0 0 0 0 0 0 0 0 0 0 0 0 0 0 0
0 0 0 0 0 0 0 0 0 0 0 0 0 0 0 0 0 0 0 0 0 0 0 0 0 0 0 0 0 0 0 0 0 0 0 0 0 0
0 0 0 0 0 0 0 0 0 0 0 0 0 0 0 0 0 0 0 0 0 0 0 0 0 0 0 0 0 0 0 0 0 0 0 0 0 0
0 0 0 0 0 0 0 0 0 0 0 0 0 0 0 0 0 0 0 0 0 0 0 0 0 0 0 0 0 0 0 0 0 0 0 0 0 0
Wind_Speed
3 4 4 4 4 4 4 4 7 14 15 4 3 3 5 6 14 11 9 22 31 32 32 32 32 32 32 33 33 34 34 34 34 34 34 34 34 33
3 4 5 4 5 5 5 5 6 11 16 8 9 8 8 10 18 13 11 28 29 30 31 32 33 34 35 35 35 35 35 34 34 34 34 34 34 34
5 5 6 6 5 5 5 6 7 8 15 16 11 9 9 10 12 10 11 12 13 27 31 33 35 35 35 35 35 34 34 34 34 34 34 34 34 34
6 6 7 6 7 6 6 7 8 9 12 19 15 12 12 11 12 11 12 12 10 23 31 33 34 34 34 34 34 34 34 33 33 33 33 34 34 33
6 6 7 7 8 7 8 9 8 10 9 13 16 14 12 10 12 12 11 10 13 18 25 28 30 32 33 34 34 34 34 34 33 33 33 33 33 33
5 6 7 8 9 9 9 9 8 9 10 12 14 13 12 10 9 11 13 9 11 12 18 22 26 31 33 34 34 34 33 33 33 33 33 33 33 33
6 7 8 13 16 14 12 10 10 10 11 12 13 13 12 11 12 12 15 14 11 10 11 12 12 12 15 23 28 31 32 33 33 33 33 33 33 33
7 8 9 11 15 21 25 24 22 17 15 13 12 13 15 14 13 14 15 16 15 6 9 13 11 13 12 11 23 32 33 33 33 33 33 33 33 33
8 9 10 11 17 11 18 23 20 22 22 16 14 15 16 15 16 18 16 16 17 13 13 17 11 14 13 15 29 32 33 34 34 34 33 33 33 34
8 9 10 10 12 17 14 13 10 10 16 13 11 13 14 13 14 15 16 17 16 11 11 16 14 14 15 13 25 32 33 33 33 33 33 33 33 33
8 8 10 10 20 26 17 13 12 11 17 21 23 23 27 27 21 13 12 13 15 14 9 11 13 15 15 15 17 27 29 30 31 32 32 32 32 32
7 7 14 19 24 26 14 10 13 14 13 13 15 17 15 16 21 13 11 12 14 12 6 7 11 12 12 8 8 10 15 23 29 31 31 32 31 21
8 7 8 23 26 26 21 10 17 19 11 11 12 11 11 9 10 10 10 11 13 14 12 11 12 11 11 14 13 12 11 12 13 17 23 29 30 25
9 8 11 24 26 24 17 19 24 19 9 10 11 11 11 11 11 12 14 13 13 17 18 16 13 13 14 16 15 12 10 11 12 13 12 19 22 27
9 19 23 24 22 15 18 22 18 9 10 10 11 11 10 11 12 11 12 12 14 14 13 14 14 13 13 14 14 14 15 13 10 11 10 10 9 9
10 14 20 19 16 16 15 12 9 9 11 10 11 11 11 10 10 10 12 12 12 13 10 11 12 13 13 15 14 15 13 11 11 11 9 7 6 7
13 6 7 8 9 9 9 9 9 9 10 10 10 11 12 11 11 9 9 11 11 13 14 11 9 10 13 13 11 11 13 12 11 11 8 5 4 6
13 8 9 9 10 10 11 11 11 10 10 10 10 10 11 11 12 11 10 10 11 12 12 12 13 12 8 6 8 10 11 11 11 10 7 5 2 2
8 7 8 9 10 10 10 11 11 11 10 10 10 10 10 11 11 11 11 11 11 11 11 11 10 9 11 11 10 9 12 12 11 9 8 6 5 2
6 8 9 9 10 10 10 11 11 11 10 10 10 10 10 10 11 11 10 11 12 12 11 10 9 9 9 9 8 9 17 14 11 11 10 7 7 6
8 9 9 10 10 10 10 11 11 11 11 11 11 11 10 10 10 10 10 16 13 10 11 11 11 17 9 6 6 9 11 18 19 13 13 10 9 10
9 10 10 10 10 10 10 10 11 11 11 10 10 10 10 9 10 12 10 10 9 9 10 9 10 9 5 6 8 10 11 13 15 21 25 23 11 9
10 10 10 11 10 10 10 11 12 12 11 11 10 10 10 10 10 9 10 9 8 8 8 8 7 6 5 5 7 8 12 13 11 12 14 24 27 26
Wind_Direction
276 269 256 255 253 252 254 263 290 305 309 278 265 259 267 274 283 287 278 290 295 295 294 294 294 292 291 289 287 286 283 281 278 275 273 270 267 263
275 272 267 261 259 255 252 254 255 278 293 292 294 287 279 288 293 292 283 291 294 294 292 291 291 291 290 288 286 284 282 280 278 275 273 269 266 264
294 287 278 276 270 263 258 258 260 265 283 295 294 292 285 282 288 276 276 274 276 285 289 291 291 290 288 287 286 285 283 281 278 276 274 272 269 266
295 294 289 291 280 273 267 265 266 263 276 292 299 300 292 288 287 282 290 288 280 286 290 291 290 291 290 289 287 285 283 281 279 277 275 272 270 267
292 293 290 289 285 279 274 273 272 277 277 287 294 296 294 292 293 292 287 281 283 288 291 291 290 290 289 288 287 286 285 283 280 278 275 272 270 268
293 288 285 284 282 280 282 275 283 289 285 285 289 294 295 295 296 301 300 287 285 288 287 287 287 289 288 288 288 286 284 282 279 276 273 270 267 265
289 283 284 298 303 303 305 305 300 294 293 294 297 301 303 307 304 302 300 299 287 279 281 282 283 279 279 281 282 281 279 278 275 273 270 267 264 261
294 291 290 296 299 311 311 307 303 302 303 302 304 303 302 301 302 301 302 301 299 288 283 290 284 281 278 271 276 279 278 277 275 272 269 266 263 259
290 294 301 303 311 296 295 300 303 304 306 304 298 296 298 300 301 301 300 298 296 300 298 293 288 284 281 279 283 282 280 279 276 273 270 266 262 259
283 285 289 293 296 303 302 307 301 297 298 298 287 290 295 297 296 299 298 297 293 289 287 290 292 288 287 281 282 280 279 278 275 273 269 265 261 257
286 289 299 298 303 312 316 309 305 302 308 306 304 305 306 307 307 305 303 302 300 299 290 281 289 295 288 280 277 279 279 279 278 275 272 267 262 256
293 286 304 310 312 318 319 312 312 309 309 311 310 306 301 298 304 302 299 297 299 299 284 281 294 306 299 271 263 275 278 278 277 275 272 267 262 256
310 305 299 314 318 322 324 317 307 314 319 315 308 303 302 301 302 300 294 290 292 288 292 298 294 292 284 294 295 283 274 275 277 273 270 266 260 252
311 307 308 318 324 326 324 315 318 326 318 309 306 307 308 307 305 302 296 289 279 281 286 288 285 288 291 291 294 294 290 281 276 272 265 262 259 252
309 314 319 324 327 324 316 320 326 319 309 308 308 307 303 297 300 301 300 295 288 280 277 276 278 284 283 284 286 290 300 298 283 275 269 258 245 236
311 314 323 324 321 317 318 319 314 307 311 308 306 303 303 302 304 306 309 312 309 305 291 276 275 284 288 285 283 288 295 293 297 296 284 264 236 217
324 323 320 319 318 317 315 313 313 314 313 308 306 307 308 308 308 309 306 310 308 310 316 317 305 292 280 277 284 291 301 304 303 306 303 285 236 212
333 324 318 316 316 316 316 315 314 312 311 309 306 304 306 307 308 309 309 309 310 311 312 316 324 325 321 291 255 294 312 317 322 324 328 316 305 216
329 314 311 311 310 310 309 308 308 308 307 304 302 303 304 304 305 308 311 312 311 311 312 315 321 326 328 326 313 316 329 333 337 342 344 342 345 344
315 310 309 308 308 307 306 306 305 306 306 304 302 301 301 302 304 306 308 310 312 314 317 320 324 326 321 311 309 316 335 348 349 354 355 354 7 21
315 310 307 305 304 303 303 302 301 301 301 302 301 300 301 301 301 302 304 309 314 315 320 321 316 321 314 315 327 342 347 354 5 12 6 6 14 23
311 308 305 302 302 301 301 301 301 300 301 300 299 299 299 297 298 300 302 307 310 312 313 311 317 327 340 351 351 348 353 355 2 17 29 34 32 27
309 306 304 302 300 299 299 299 298 298 298 297 297 297 298 298 297 296 299 302 306 313 318 322 330 339 342 346 354 357 0 3 5 15 26 28 38 46